OneWeb SL0315

operational
NORAD ID: 49101 Int'l Des: 2021-075 Owner: ONEWEBN Country: UK Constellation: oneweb
LEOCIRCULARPOLARONEWEB_TYPE

Über OneWeb SL0315

Beschreibung wird geladen...

Live-Position

3D-Globus wird geladen...

Nächste Überflüge

Höhenverlauf

Altitude vs Time

uPlot chart will show altitude changes over time

Zweizeiliger Elementsatz

1 49101U 21075AC 25306.48007222 .00000385 00000-0 10352-2 0 9990
2 49101 87.8969 35.6777 0001389 98.1688 261.9598 13.12441917205437
Epoch: 2. Nov. 2025 • Age: 8 hours

Aktueller Status

Höhe 1222.6 km
Geschwindigkeit 7.24 km/s
Subsatellitenpunkt -22.99°S, 123.9°W
Startdatum 21. Aug. 2021
Alter 4.1 years
Typ internet

Technische Details

Klassifizierung Payload
Masse 148.00 kg
Trockenmasse 140.00 kg
Gesamtmasse 148.00 kg
Länge 1.30 m
Durchmesser 1.00 m
Spannweite 5.00 m
Form Trapezoid+2 pan
Hersteller ONEWUS
Bus-Typ ARROW
Phasenstatus In Orbit
Besitzer/Staat ONEWEBN/UK

Große Konstellationen

Loading constellations...